Regional Weather Roundup
Issued by NWS Newport/Morehead, NC

Current Version | Previous Version | Graphics & Text | Print | Product List | Glossary On
Versions: 1 2 3 4 5 6 7 8 9 10 11 12 13 14 15 16 17 18 19 20 21 22 23 24 25 26 27 28 29 30 31 32 33 34 35 36 37 38 39 40 41 42 43 44 45 46 47 48 49 50
000
ASUS42 KMHX 032122
RWRMHX
WEATHER ROUNDUP FOR EASTERN NORTH CAROLINA
NATIONAL WEATHER SERVICE NEWPORT/MOREHEAD CITY NC
400 PM EST SAT DEC 03 2022

NOTE: "FAIR" INDICATES FEW OR NO CLOUDS BELOW 12,000 FEET
WITH NO SIGNIFICANT WEATHER AND/OR OBSTRUCTIONS TO VISIBILITY

NCZ015>017-031-032-045>047-102-103-032200-
NORTH COAST

CITY           SKY/WX    TMP DP  RH WIND       PRES   REMARKS
EDENTON        CLOUDY    63  63  99 SW8       30.23S
ELIZABETH CITY CLOUDY    63  59  87 SW12      30.21S
KITTY HAWK     DRIZZLE   61  60  94 S3        30.21R
MANTEO         LGT RAIN  59  56  92 SW8       30.22F

$$

NCZ045>047-081-094-103-104-032200-
CENTRAL COAST

CITY           SKY/WX    TMP DP  RH WIND       PRES   REMARKS
FRISCO         CLOUDY    66  61  84 SW8       30.23F

$$

NCZ095-097-098-100-101-032200-
SOUTHERN COAST

CITY           SKY/WX    TMP DP  RH WIND       PRES   REMARKS
PINEY ISLAND   CLOUDY    73  61  65 SW10      30.23F
BEAUFORT       CLOUDY    67  63  87 SW7       30.24F
CAPE CARTERET  LGT RAIN  68  62  81 MISG      30.25F
JACKSONVILLE   LGT RAIN  66  63  90 CALM      30.22F
WILMINGTON     CLOUDY    73  58  59 SW8       30.23F


$$

NCZ011>013-027>030-043-044-078>080-089-090>093-098-032200-
COASTAL PLAIN

CITY           SKY/WX    TMP DP  RH WIND       PRES   REMARKS
AHOSKIE        CLOUDY    60  60 100 SW9       30.19F
ROCKY MOUNT    LGT RAIN  62  58  86 SW8       30.22S
GREENVILLE     LGT RAIN  63  63 100 SW5       30.21F
WASHINGTON     RAIN      63  60  90 SW5       30.24S
GOLDSBORO      LGT RAIN  63  63 100 CALM      30.19F
KINSTON        CLOUDY    63  63 100 CALM      30.24S
NEW BERN       LGT RAIN  67  61  81 W6        30.25R
HAVELOCK       CLOUDY    68  60  75 SW13      30.25S
KENANSVILLE    LGT RAIN  64  61  88 SW5       30.24S
RICHLANDS      CLOUDY    66  62  87 CALM      30.24F
CLINTON        CLOUDY    64  64 100 CALM      30.23F
ELIZABETHTOWN  CLOUDY    69  58  68 CALM      30.22F
WHITEVILLE     CLOUDY    72  54  52 CALM      30.25R

$$

AMZ130-135-150-152-154-156-158-170-250-252-270-ANZ085-086-088-633-658-670-032200-
MARINE OBSERVATIONS

STATION/POSITION TIME  TEMP    WIND        PRES    WAVE   SWELL
                       AIR SEA DIR/SP/G            HT/PER HT/PER
                 (UTC) (F)     (DEG/KT/KT) (MB)    (FT/S) (FT/S)
64 E VA BEACH    NOT AVBL
64 E VA BEACH    2030   61 60                N/A     3/ 5   2/11
DUCK PIER        2042   63 57  220/ 10/ 12 1022.6
2 E DUCK         2056      59                N/A     2/ 5
10 NE DUCK       2056      60                N/A     3/ 5
OREGON INLET     2042   59 54  220/ 13/ 14 1023.4
13E OREGON INLT  2056      63                N/A     3/ 5   2/ 8
13E CAPE HATTERA 2030      72                N/A     5/ 5   2/10
HATTERAS CG      2042   66 57  210/  8/ 11 1024.0
DIAMOND BUOY     2110      74  220/ 17/ 23 1023.5
CAPE LOOKOUT     2100   68     210/ 10/ 12 1024.6
BEAUFORT LAB     2042   66 58  220/  3/  5 1023.8
30 SE NEW RVR IN NOT AVBL
30 SE NEW RVR IN 2056      73                N/A     5/ 5
27 SE WRIGHTSVLE 2008   71 71  230/ 12/ 17 1024.0
5 SE WRIGHTSVLE  NOT AVBL
27 SE WRIGHTSVL  2008   71 71  230/ 12/ 17 1024.0
FRYING PAN BUOY  2110   72 72  240/ 12/ 14 1024.3
225 S CAPE HAT   2110   73 74  120/  4/  6 1025.0
41 SE CHARLESTON 2110   73 76  240/ 10/ 14 1024.7

$$



USA.gov is the U.S. government's official web portal to all federal, state and local government web resources and services.